DW0805 Ramloese DK current weather conditions

sailwx.info

Wind from 326

Air temperature 11.1° C
Dewpoint 7.4° C

Last reported at 2016-May-05 05:45 UTC.
Time now 2016-May-05 06:40 UTC

Location: N 56°01' E 012°05'.
View on Google Maps.

See reports from other nearby stations

  
Tides and Currents Weather Stations Pressure Air Temp Water Temp Dewpoint Dewpoint Depression Visibility Wind Speed Wind Dir Waves Ship Positions
date/time (UTC)wind fromknots sea level pressurealtimeterstation pressurevisibilityair tempwater tempwave heightnotes
2016-May-05 05:45 326 11.1
2016-May-05 05:35 320 10.6
2016-May-05 05:25 320 10.0
2016-May-05 05:15 321 9.4
2016-May-05 05:05 321 8.9
2016-May-05 04:15 317 2.8
2016-May-05 03:55 317 2.2
2016-May-05 03:35 318 2.8
2016-May-05 03:25 319 3.3
2016-May-05 02:25 317 2.2
2016-May-05 02:15 317 2.2
2016-May-05 01:55 317 2.2
2016-May-05 01:35 334 3.3
2016-May-05 01:25 327 3.3
2016-May-05 01:05 335 2.8
2016-May-05 00:55 330 3.3
2016-May-05 00:45 333 3.3
2016-May-05 00:35 335 4.4
2016-May-05 00:25 333 3.9
2016-May-05 00:15 328 3.9
2016-May-05 00:05 330 3.9
2016-May-04 23:55 328 3.3
2016-May-04 23:45 324 3.3
2016-May-04 23:35 333 0 gusting 1 3.3
2016-May-04 23:15 329 3.9
2016-May-04 22:55 333 3.9
2016-May-04 22:45 326 0 gusting 1 4.4
2016-May-04 22:15 331 4.4
2016-May-04 22:05 327 4.4
2016-May-04 21:55 328 3.9
2016-May-04 21:45 334 0 gusting 1 4.4
2016-May-04 21:35 328 4.4
2016-May-04 21:25 335 4.4
2016-May-04 21:15 333 5.0
2016-May-04 21:05 333 5.0
2016-May-04 20:55 333 5.6
2016-May-04 20:45 328 5.6
2016-May-04 20:35 327 5.6
2016-May-04 20:15 333 6.1
2016-May-04 20:05 334 6.1
2016-May-04 19:55 329 6.7
2016-May-04 19:25 333 7.8
2016-May-04 19:15 334 7.8
2016-May-04 19:05 334 8.3
2016-May-04 18:55 333 8.9
2016-May-04 18:45 335 9.4
2016-May-04 18:35 331 10.0
2016-May-04 18:15 335 0 gusting 4 10.6
2016-May-04 18:05 330 1 gusting 2 10.6
2016-May-04 17:55 333 1 gusting 4 11.7
2016-May-04 17:25 328 1 gusting 5 12.8
2016-May-04 17:15 351 1 gusting 6 12.2
2016-May-04 17:05 340 2 gusting 7 12.8
2016-May-04 16:55 333 2 gusting 6 12.8
2016-May-04 16:45 335 2 gusting 6 13.3
2016-May-04 16:35 339 2 gusting 7 13.9
2016-May-04 16:25 354 2 gusting 6 13.9
2016-May-04 16:15 335 5 gusting 10 13.9
2016-May-04 15:55 025 2 gusting 6 14.4
2016-May-04 15:45 009 1 gusting 10 14.4
2016-May-04 15:25 339 6 gusting 10 14.4
2016-May-04 15:05 339 6 gusting 11 14.4
2016-May-04 14:55 008 7 gusting 11 13.9
2016-May-04 14:15 002 5 gusting 11 14.4
2016-May-04 14:05 013 6 gusting 11 14.4
2016-May-04 13:35 019 6 gusting 10 13.9
2016-May-04 13:25 340 6 gusting 11 13.9
2016-May-04 13:15 001 6 gusting 12 13.9
2016-May-04 12:55 336 6 gusting 11 13.3
2016-May-04 12:45 356 7 gusting 11 13.9
2016-May-04 12:35 344 5 gusting 12 13.3
2016-May-04 12:25 001 7 gusting 11 13.9
2016-May-04 12:15 320 6 gusting 13 13.3
2016-May-04 12:05 339 6 gusting 10 13.9
2016-May-04 11:55 349 5 gusting 12 13.9
2016-May-04 11:35 342 8 gusting 12 13.3
2016-May-04 11:15 347 5 gusting 11 13.3
2016-May-04 11:05 355 7 gusting 12 13.3
2016-May-04 10:55 335 6 gusting 13 13.3
2016-May-04 10:45 351 5 gusting 10 13.9
2016-May-04 10:35 006 6 gusting 11 13.3
2016-May-04 10:25 003 5 gusting 10 12.8
2016-May-04 10:15 005 6 gusting 11 13.3
2016-May-04 10:05 354 6 gusting 11 13.3
2016-May-04 09:45 010 8 gusting 13 12.8
2016-May-04 09:35 355 8 gusting 12 12.8
2016-May-04 09:25 009 5 gusting 12 12.2
2016-May-04 09:15 335 6 gusting 13 11.7
2016-May-04 09:05 327 6 gusting 14 11.7
2016-May-04 08:45 347 7 gusting 13 10.6
2016-May-04 08:35 334 7 gusting 14 10.0
2016-May-04 08:25 345 8 gusting 13 10.0
2016-May-04 08:15 330 6 gusting 15 9.4
2016-May-04 07:15 340 5 gusting 10 8.9
2016-May-04 06:55 337 6 gusting 10 7.8
2016-May-04 06:45 335 5 gusting 10 7.8
2016-May-04 06:35 329 6 gusting 10 7.8
2016-May-04 06:25 335 4 gusting 10 7.8
2016-May-04 06:15 333 4 gusting 8 7.8
2016-May-04 06:05 334 4 gusting 10 7.8
2016-May-04 05:55 332 4 gusting 10 7.8
2016-May-04 05:45 309 4 gusting 8 7.8
2016-May-04 05:25 320 5 gusting 11 7.2
2016-May-04 05:05 328 4 gusting 10 7.2
2016-May-04 04:55 330 5 gusting 10 7.2
2016-May-04 04:45 327 3 gusting 6 6.7
2016-May-04 04:25 331 2 gusting 7 6.1
2016-May-04 04:15 331 3 gusting 7 6.1
2016-May-04 03:45 325 3 gusting 7 5.6
2016-May-04 03:35 327 4 gusting 6 5.6
2016-May-04 03:25 318 2 gusting 5 5.6
2016-May-04 03:15 319 2 gusting 5 5.6
2016-May-04 03:05 318 3 gusting 6 5.6
2016-May-04 02:55 315 4 gusting 7 5.6
2016-May-04 02:45 325 2 gusting 6 5.6
2016-May-04 02:35 330 4 gusting 7 6.1
2016-May-04 02:25 322 2 gusting 5 6.1
2016-May-04 02:15 323 4 gusting 6 6.1
2016-May-04 02:05 319 4 gusting 6 6.1
2016-May-04 01:55 324 3 gusting 7 6.1
2016-May-04 01:45 330 4 gusting 8 6.7
2016-May-04 01:25 331 5 gusting 8 6.7
2016-May-04 00:55 330 4 gusting 8 6.7
2016-May-04 00:45 342 4 gusting 10 6.7
2016-May-04 00:35 340 5 gusting 10 6.7
2016-May-04 00:15 339 4 gusting 10 7.2
2016-May-04 00:05 323 2 gusting 8 7.2
2016-May-03 23:55 339 4 gusting 10 7.2
2016-May-03 23:45 339 4 gusting 7 6.7
2016-May-03 23:35 340 4 gusting 10 6.7
2016-May-03 23:25 343 6 gusting 10 6.7
2016-May-03 23:15 340 3 gusting 6 6.1
2016-May-03 23:05 356 1 gusting 4 5.6
2016-May-03 22:55 001 1 gusting 5 5.6
2016-May-03 22:35 018 1 gusting 2 5.0
2016-May-03 22:25 018 0 gusting 1 5.0
2016-May-03 22:05 018 0 gusting 1 5.6
2016-May-03 21:55 018 5.6
2016-May-03 21:45 018 5.6
2016-May-03 21:35 018 0 gusting 2 5.6
2016-May-03 21:25 018 1 gusting 2 5.6
2016-May-03 20:35 018 6.7
2016-May-03 20:15 018 7.2
2016-May-03 20:05 018 7.8
2016-May-03 19:55 018 7.8
2016-May-03 19:45 018 8.3
2016-May-03 19:35 018 8.3
2016-May-03 19:15 018 8.3
2016-May-03 19:05 018 0 gusting 2 8.3
2016-May-03 18:55 018 1 gusting 2 8.3
2016-May-03 18:45 018 0 gusting 2 8.3
2016-May-03 18:25 018 8.3
2016-May-03 18:05 018 0 gusting 1 8.9
2016-May-03 17:55 018 0 gusting 1 8.9
2016-May-03 17:45 018 0 gusting 2 8.9
2016-May-03 17:35 018 1 gusting 4 8.9
2016-May-03 17:15 018 1 gusting 2 8.9
2016-May-03 16:55 012 1 gusting 4 8.9
2016-May-03 16:45 013 1 gusting 5 8.9
2016-May-03 16:35 017 1 gusting 7 8.9
2016-May-03 16:25 031 3 gusting 6 8.9
2016-May-03 16:15 035 2 gusting 5 9.4
2016-May-03 16:05 009 2 gusting 7 9.4
2016-May-03 15:55 004 1 gusting 6 8.9
2016-May-03 15:45 354 4 gusting 6 8.9
2016-May-03 15:35 351 4 gusting 7 8.9
2016-May-03 15:15 345 6 gusting 11 8.9
2016-May-03 15:05 327 2 gusting 13 8.9
2016-May-03 14:45 331 8 gusting 13 9.4
2016-May-03 14:35 340 7 gusting 14 9.4
2016-May-03 14:25 333 10 gusting 17 10.0
2016-May-03 14:15 324 8 gusting 14 10.0
2016-May-03 14:05 314 9 gusting 14 10.0
2016-May-03 13:55 338 8 gusting 17 10.0
2016-May-03 13:45 335 10 gusting 14 10.0
2016-May-03 13:35 313 9 gusting 15 10.6
2016-May-03 13:25 291 8 gusting 13 10.6
2016-May-03 13:15 303 7 gusting 13 11.1
2016-May-03 13:05 307 6 gusting 11 11.7
2016-May-03 12:55 300 8 gusting 17 11.7
2016-May-03 12:45 325 7 gusting 15 12.2
2016-May-03 12:35 340 6 gusting 12 12.8
2016-May-03 12:25 296 7 gusting 13 13.3
2016-May-03 12:05 323 9 gusting 13 14.4
2016-May-03 11:55 256 4 gusting 10 15.6
2016-May-03 11:45 257 5 gusting 10 16.7
2016-May-03 11:35 248 6 gusting 11 16.7
2016-May-03 11:25 260 7 gusting 12 16.7
2016-May-03 11:15 255 8 gusting 13 16.1
2016-May-03 11:05 259 7 gusting 13 16.7
2016-May-03 10:55 214 4 gusting 8 17.2
2016-May-03 10:35 221 4 gusting 8 16.7
2016-May-03 10:25 210 6 gusting 10 16.1
2016-May-03 10:15 221 5 gusting 10 16.1
2016-May-03 10:05 213 4 gusting 7 16.7
2016-May-03 09:55 185 4 gusting 7 15.6
2016-May-03 09:45 173 2 gusting 7 15.0
2016-May-03 09:35 183 5 gusting 7 14.4
2016-May-03 09:25 190 5 gusting 7 15.0
2016-May-03 09:15 181 5 gusting 7 15.0
2016-May-03 09:05 182 4 gusting 7 14.4
2016-May-03 08:55 184 5 gusting 7 15.0
2016-May-03 08:45 180 5 gusting 8 15.0
2016-May-03 08:25 184 4 gusting 10 16.1
2016-May-03 08:15 203 6 gusting 12 15.6
2016-May-03 08:05 188 7 gusting 11 14.4
2016-May-03 07:55 173 3 gusting 7 16.1
2016-May-03 07:35 182 5 gusting 10 13.9
2016-May-03 07:15 208 4 gusting 10 13.9
2016-May-03 06:55 205 4 gusting 8 13.9
2016-May-03 06:45 181 3 gusting 10 14.4
2016-May-03 06:35 157 5 gusting 11 12.8
2016-May-03 06:05 151 4 gusting 7 12.8